Year,Month,Day,Hour,Minute,Value (Times are PST for temperature in C)
2010,10,24,10,14,10.60
2010,10,24,10,15,10.60
2010,10,24,10,16,10.60
2010,10,24,10,17,10.50
2010,10,24,10,18,10.40
2010,10,24,10,19,10.40
2010,10,24,10,20,10.40
2010,10,24,10,21,10.40
2010,10,24,10,22,10.40
2010,10,24,10,23,10.40
2010,10,24,10,24,10.50
2010,10,24,10,25,10.60
2010,10,24,10,26,10.60
2010,10,24,10,27,10.60
2010,10,24,10,28,10.60
2010,10,24,10,29,10.60
2010,10,24,10,30,10.60
2010,10,24,10,31,10.60
2010,10,24,10,32,10.60
2010,10,24,10,33,10.60
2010,10,24,10,34,10.60
2010,10,24,10,35,10.60
2010,10,24,10,36,10.60
2010,10,24,10,37,10.60
2010,10,24,10,38,10.60
2010,10,24,10,39,10.60
2010,10,24,10,40,10.50
2010,10,24,10,41,10.40
2010,10,24,10,42,10.40
2010,10,24,10,43,10.40
2010,10,24,10,44,10.40
2010,10,24,10,45,10.40
2010,10,24,10,46,10.40
2010,10,24,10,47,10.40
2010,10,24,10,48,10.40
2010,10,24,10,49,10.30
2010,10,24,10,50,10.30
2010,10,24,10,51,10.30
2010,10,24,10,52,10.30
2010,10,24,10,53,10.40
2010,10,24,10,54,10.40
2010,10,24,10,55,10.40
2010,10,24,10,56,10.40
2010,10,24,10,57,10.40
2010,10,24,10,58,10.40
2010,10,24,10,59,10.40
2010,10,24,11,00,10.50
2010,10,24,11,01,10.60
2010,10,24,11,02,10.60
2010,10,24,11,03,10.60
2010,10,24,11,04,10.50
2010,10,24,11,05,10.40
2010,10,24,11,06,10.40
2010,10,24,11,07,10.40
2010,10,24,11,08,10.60
2010,10,24,11,09,10.60
2010,10,24,11,10,10.60
2010,10,24,11,11,10.60
2010,10,24,11,12,10.60
2010,10,24,11,13,10.60
2010,10,24,11,14,10.60
2010,10,24,11,15,10.60
2010,10,24,11,16,10.60
2010,10,24,11,17,10.60
2010,10,24,11,18,10.60
2010,10,24,11,19,10.60
2010,10,24,11,20,10.60
2010,10,24,11,21,10.60
2010,10,24,11,22,10.60
2010,10,24,11,23,10.60
2010,10,24,11,24,10.60
2010,10,24,11,25,10.50
2010,10,24,11,26,10.40
2010,10,24,11,27,10.40
2010,10,24,11,28,10.40
2010,10,24,11,29,10.60
2010,10,24,11,30,10.60
2010,10,24,11,31,10.40
2010,10,24,11,32,10.50
2010,10,24,11,33,10.50
2010,10,24,11,34,10.50
2010,10,24,11,35,10.60
2010,10,24,11,36,10.50
2010,10,24,11,37,10.40
2010,10,24,11,38,10.40
2010,10,24,11,39,10.40
2010,10,24,11,40,10.40
2010,10,24,11,41,10.40
2010,10,24,11,42,10.40
2010,10,24,11,43,10.50
2010,10,24,11,44,10.60
2010,10,24,11,45,10.60
2010,10,24,11,46,10.60
2010,10,24,11,47,10.60
2010,10,24,11,48,10.60
2010,10,24,11,49,10.60
2010,10,24,11,50,10.60
2010,10,24,11,51,10.60
2010,10,24,11,52,10.70
2010,10,24,11,53,10.70
2010,10,24,11,54,10.70
2010,10,24,11,55,10.70
2010,10,24,11,56,10.70
2010,10,24,11,57,10.70
2010,10,24,11,58,10.70
2010,10,24,11,59,10.70
2010,10,24,12,00,10.70
2010,10,24,12,01,10.70
2010,10,24,12,02,10.70
2010,10,24,12,03,10.70
2010,10,24,12,04,10.80
2010,10,24,12,05,10.80
2010,10,24,12,06,10.70
2010,10,24,12,07,10.70
2010,10,24,12,08,10.70
2010,10,24,12,09,10.60
2010,10,24,12,10,10.60
2010,10,24,12,11,10.60
2010,10,24,12,12,10.60
2010,10,24,12,13,10.50
2010,10,24,12,14,10.50
2010,10,24,12,15,10.60
2010,10,24,12,16,10.60
2010,10,24,12,17,10.60
2010,10,24,12,18,10.60
2010,10,24,12,19,10.60
2010,10,24,12,20,10.70
2010,10,24,12,21,10.70
2010,10,24,12,22,10.70
2010,10,24,12,23,10.80
2010,10,24,12,24,10.80
2010,10,24,12,25,10.90
2010,10,24,12,26,10.90
2010,10,24,12,27,10.90
2010,10,24,12,28,11.00
2010,10,24,12,29,11.10
2010,10,24,12,30,11.10
2010,10,24,12,31,11.10
2010,10,24,12,32,11.10
2010,10,24,12,33,11.20
2010,10,24,12,34,11.20
2010,10,24,12,35,11.20
2010,10,24,12,36,11.20
2010,10,24,12,37,11.10
2010,10,24,12,38,11.10
2010,10,24,12,39,11.10
2010,10,24,12,40,11.10
2010,10,24,12,41,11.10
2010,10,24,12,42,11.10
2010,10,24,12,43,11.10
2010,10,24,12,44,11.00
2010,10,24,12,45,10.90
2010,10,24,12,46,10.90
2010,10,24,12,47,11.00
2010,10,24,12,48,11.10
2010,10,24,12,49,11.20
2010,10,24,12,50,11.30
2010,10,24,12,51,11.40
2010,10,24,12,52,11.40
2010,10,24,12,53,11.40
2010,10,24,12,54,11.60
2010,10,24,12,55,11.60
2010,10,24,12,56,11.70
2010,10,24,12,57,11.80
2010,10,24,12,58,11.80
2010,10,24,12,59,11.80
2010,10,24,13,00,11.80
2010,10,24,13,01,11.80
2010,10,24,13,02,11.80
2010,10,24,13,03,11.80
2010,10,24,13,04,11.80
2010,10,24,13,05,11.90
2010,10,24,13,06,11.90
2010,10,24,13,07,11.90
2010,10,24,13,08,11.90
2010,10,24,13,09,11.90
2010,10,24,13,10,11.80
2010,10,24,13,11,11.80
2010,10,24,13,12,11.80
2010,10,24,13,13,11.80
2010,10,24,13,14,11.70
2010,10,24,13,15,11.70
2010,10,24,13,16,11.70
2010,10,24,13,17,11.60
2010,10,24,13,18,11.60
2010,10,24,13,19,11.60
2010,10,24,13,20,11.60
2010,10,24,13,21,11.50
2010,10,24,13,22,11.40
2010,10,24,13,23,11.40
2010,10,24,13,24,11.30
2010,10,24,13,25,11.40
2010,10,24,13,26,11.40
2010,10,24,13,27,11.40
2010,10,24,13,28,11.40
2010,10,24,13,29,11.40
2010,10,24,13,30,11.40
2010,10,24,13,31,11.40
2010,10,24,13,32,11.40
2010,10,24,13,33,11.40
2010,10,24,13,34,11.30
2010,10,24,13,35,11.30
2010,10,24,13,36,11.20
2010,10,24,13,37,11.20
2010,10,24,13,38,11.20
2010,10,24,13,39,11.20
2010,10,24,13,40,11.20
2010,10,24,13,41,11.20
2010,10,24,13,42,11.10
2010,10,24,13,43,11.10
2010,10,24,13,44,11.10
2010,10,24,13,45,11.00
2010,10,24,13,46,11.00
2010,10,24,13,47,11.10
2010,10,24,13,48,11.10
2010,10,24,13,49,11.10
2010,10,24,13,50,11.00
2010,10,24,13,51,10.90
2010,10,24,13,52,10.90
2010,10,24,13,53,10.90
2010,10,24,13,54,10.90
2010,10,24,13,55,10.90
2010,10,24,13,56,10.90
2010,10,24,13,57,10.90
2010,10,24,13,58,10.90
2010,10,24,13,59,10.90
2010,10,24,14,00,10.90
2010,10,24,14,01,11.00
2010,10,24,14,02,11.10
2010,10,24,14,03,11.10
2010,10,24,14,04,11.20
2010,10,24,14,05,11.20
2010,10,24,14,06,11.30
2010,10,24,14,07,11.40
2010,10,24,14,08,11.40
2010,10,24,14,09,11.60
2010,10,24,14,10,11.50
2010,10,24,14,11,11.40
2010,10,24,14,12,11.40
2010,10,24,14,13,11.40
2010,10,24,14,14,11.40
2010,10,24,14,15,11.40
2010,10,24,14,16,11.50
2010,10,24,14,17,11.60
2010,10,24,14,18,11.60
2010,10,24,14,19,11.60
2010,10,24,14,20,11.70
2010,10,24,14,21,11.70
2010,10,24,14,22,11.70
2010,10,24,14,23,11.80
2010,10,24,14,24,11.80
2010,10,24,14,25,11.80
2010,10,24,14,26,11.80
2010,10,24,14,27,11.90
2010,10,24,14,28,11.90
2010,10,24,14,29,11.90
2010,10,24,14,30,11.90
2010,10,24,14,31,11.90
2010,10,24,14,32,11.80
2010,10,24,14,33,11.90
2010,10,24,14,34,11.90
2010,10,24,14,35,11.90
2010,10,24,14,36,11.90
2010,10,24,14,37,11.90
2010,10,24,14,38,11.90
2010,10,24,14,39,11.90
2010,10,24,14,40,11.90
2010,10,24,14,41,11.80
2010,10,24,14,42,11.80
2010,10,24,14,43,11.80
2010,10,24,14,44,11.80
2010,10,24,14,45,11.80
2010,10,24,14,46,11.80
2010,10,24,14,47,11.80
2010,10,24,14,48,11.80
2010,10,24,14,49,11.80
2010,10,24,14,50,11.80
2010,10,24,14,51,11.80
2010,10,24,14,52,11.80
2010,10,24,14,53,11.80
2010,10,24,14,54,11.80
2010,10,24,14,55,11.80
2010,10,24,14,56,11.80
2010,10,24,14,57,11.80
2010,10,24,14,58,11.80
2010,10,24,14,59,11.80
2010,10,24,15,00,11.80
2010,10,24,15,01,11.80
2010,10,24,15,02,11.80
2010,10,24,15,03,11.80
2010,10,24,15,04,11.70
2010,10,24,15,05,11.70
2010,10,24,15,06,11.60
2010,10,24,15,07,11.70
2010,10,24,15,08,11.70
2010,10,24,15,09,11.70
2010,10,24,15,10,11.60
2010,10,24,15,11,11.60
2010,10,24,15,12,11.60
2010,10,24,15,13,11.60
2010,10,24,15,14,11.60
2010,10,24,15,15,11.60
2010,10,24,15,16,11.60
2010,10,24,15,17,11.60
2010,10,24,15,18,11.60
2010,10,24,15,19,11.60
2010,10,24,15,20,11.50
2010,10,24,15,21,11.40
2010,10,24,15,22,11.60
2010,10,24,15,23,11.50
2010,10,24,15,24,11.40
2010,10,24,15,25,11.40
2010,10,24,15,26,11.40
2010,10,24,15,27,11.40
2010,10,24,15,28,11.40
2010,10,24,15,29,11.40
2010,10,24,15,30,11.40
2010,10,24,15,31,11.40
2010,10,24,15,32,11.40
2010,10,24,15,33,11.40
2010,10,24,15,34,11.40
2010,10,24,15,35,11.40
2010,10,24,15,36,11.40
2010,10,24,15,37,11.40
2010,10,24,15,38,11.40
2010,10,24,15,39,11.40
2010,10,24,15,40,11.40
2010,10,24,15,41,11.40
2010,10,24,15,42,11.30
2010,10,24,15,43,11.30
2010,10,24,15,44,11.30
2010,10,24,15,45,11.40
2010,10,24,15,46,11.40
2010,10,24,15,47,11.30
2010,10,24,15,48,11.30
2010,10,24,15,49,11.30
2010,10,24,15,50,11.30
2010,10,24,15,51,11.30
2010,10,24,15,52,11.30
2010,10,24,15,53,11.30
2010,10,24,15,54,11.30
2010,10,24,15,55,11.20
2010,10,24,15,56,11.20
2010,10,24,15,57,11.10
2010,10,24,15,58,11.10
2010,10,24,15,59,11.10
2010,10,24,16,00,11.10
2010,10,24,16,01,11.10
2010,10,24,16,02,11.10
2010,10,24,16,03,11.10
2010,10,24,16,04,11.10
2010,10,24,16,05,11.10
2010,10,24,16,06,11.00
2010,10,24,16,07,10.90
2010,10,24,16,08,10.90
2010,10,24,16,09,10.90
2010,10,24,16,10,10.90
2010,10,24,16,11,10.90
2010,10,24,16,12,10.90
2010,10,24,16,13,10.90
2010,10,24,16,14,10.90
2010,10,24,16,15,10.90
2010,10,24,16,16,10.90
2010,10,24,16,17,10.90
2010,10,24,16,18,10.90
2010,10,24,16,19,10.90
2010,10,24,16,20,10.90
2010,10,24,16,21,10.90
2010,10,24,16,22,10.90
2010,10,24,16,23,10.90
2010,10,24,16,24,10.90
2010,10,24,16,25,10.90
2010,10,24,16,26,10.90
2010,10,24,16,27,10.90
2010,10,24,16,28,10.90
2010,10,24,16,29,10.90
2010,10,24,16,30,10.90
2010,10,24,16,31,10.90
2010,10,24,16,32,10.90
2010,10,24,16,33,10.90
2010,10,24,16,34,10.90
2010,10,24,16,35,10.90
2010,10,24,16,36,10.90
2010,10,24,16,37,10.90
2010,10,24,16,38,10.90
2010,10,24,16,39,10.90
2010,10,24,16,40,10.90
2010,10,24,16,41,10.90
2010,10,24,16,42,10.90
2010,10,24,16,43,10.90
2010,10,24,16,44,10.90
2010,10,24,16,45,10.90
2010,10,24,16,46,10.90
2010,10,24,16,47,10.90
2010,10,24,16,48,10.90
2010,10,24,16,49,10.90
2010,10,24,16,50,10.90
2010,10,24,16,51,10.90
2010,10,24,16,52,10.90
2010,10,24,16,53,10.90
2010,10,24,16,54,10.90
2010,10,24,16,55,10.90
2010,10,24,16,56,10.90
2010,10,24,16,57,10.90
2010,10,24,16,58,10.90
2010,10,24,16,59,10.90
2010,10,24,17,00,10.90
2010,10,24,17,01,10.90
2010,10,24,17,02,10.90
2010,10,24,17,03,10.90
2010,10,24,17,04,10.90
2010,10,24,17,05,10.90
2010,10,24,17,06,10.90
2010,10,24,17,07,10.90
2010,10,24,17,08,10.90
